Meteo Giornale » Osservazioni meteo Giappone » Izumo
ore: 09:00 - Osservazioni Meteo Izumo
Lat. 35° 25' N Lon. 132° 54' E Alt. 2 metri s.l.m.
30 °C
Molto Nuvoloso
Temp. 24 Ore
25 °C
34 °C
Nord
3.7 Km/h
Dew point 24 °C
Umidità 70 %
Visibilità 10 Km
Il sole sorge alle ore 05:40
Il sole tramonta alle ore 18:36
| Data e Ora | Cielo e Fenomeni | T °C | DP °C | Um. % | Pres. hPa | Vis. km | Vento km/h | |
|---|---|---|---|---|---|---|---|---|
| Oggi h: 09:00 | Molto Nuvoloso | 30 | 24 | 70 | 1012 | 10 | N 3.7 | |
| Oggi h: 08:00 | Sereno | 28 | 25 | 83 | 1012 | 10 | N 5.5 | |
| Oggi h: 07:30 | Molto Nuvoloso | 27 | 25 | 88 | 1012 | 10 | S/SE 7.4 | |
| Oggi h: 07:00 | Sereno | 26 | 25 | 94 | 1012 | 10 | N 3.7 | |
| Oggi h: 06:00 | Sereno | 25 | 24 | 94 | 1011 | 10 | SE 13 | |
| Oggi h: 05:00 | Sereno | 25 | 24 | 94 | 1011 | 10 | S/SE 11.1 | |
| Oggi h: 04:00 | Sereno | 25 | 24 | 94 | 1011 | 10 | S/SE 9.3 | |
| Oggi h: 03:00 | Sereno | 25 | 25 | 100 | 1011 | 10 | S/SE 7.4 | |
| Oggi h: 02:00 | Sereno | 25 | 24 | 94 | 1011 | 10 | S/SE 9.3 | |
| Oggi h: 01:00 | Sereno | 26 | 25 | 94 | 1012 | 10 | S/SE 9.3 | |
| Oggi h: 00:00 | Sereno | 26 | 25 | 94 | 1012 | 10 | S/SE 9.3 | |
| Ieri h: 23:00 | Sereno | 26 | 25 | 94 | 1011 | 10 | S/SE 7.4 | |
| Ieri h: 22:00 | Sereno | 27 | 25 | 88 | 1011 | 10 | E 9.3 | |
| Ieri h: 21:00 | Sereno | 26 | 25 | 94 | 1011 | 10 | N 3.7 | |
| Ieri h: 20:00 | Molto Nuvoloso | 27 | 25 | 88 | 1011 | 10 | E 7.4 | |
| Ieri h: 19:00 | Molto Nuvoloso | 27 | 25 | 88 | 1010 | 10 | E/SE 13 | |
| Ieri h: 18:00 | Pioggia | 30 | 26 | 79 | 1010 | 10 | E/NE 7.4 | |
| Ieri h: 17:00 | Nuvoloso | 31 | 26 | 74 | 1010 | 10 | N 18.5 | |
| Ieri h: 16:00 | Nuvoloso | 32 | 26 | 70 | 1009 | 10 | N 18.5 | |
| Ieri h: 15:00 | Poco Nuvoloso | 32 | 25 | 66 | 1009 | 10 | N 14.8 | |
| Ieri h: 14:00 | Nuvoloso | 33 | 25 | 62 | 1009 | 10 | N/NE 16.7 | |
| Ieri h: 13:00 | Nuvoloso | 34 | 26 | 63 | 1009 | 10 | N/NE 13 | |
| Ieri h: 12:00 | Nuvoloso | 33 | 25 | 62 | 1009 | 10 | N 5.5 | |
| Ieri h: 11:00 | Nuvoloso | 33 | 26 | 66 | 1010 | 10 | N/NE 7.4 | |



